Location: Newark
(22.3060°N, 114.2134°E)
Time: 11:34:39
(UTC+00:00)

Transit 2A Rocket - All Passes

Search period start: 04 August 2021 00:00
Search period end: 14 August 2021 00:00
Orbit: 589 x 913 km, 66.7° (Epoch: 03 August)

Date Brightness Start Highest point End Pass type
(mag) Time Alt. Az. Time Alt. Az. Time Alt. Az.
04 Aug - 04:59:00 10° SSW 05:03:16 75° WNW 05:07:44 10° NNE daylight
04 Aug - 13:53:52 10° NE 13:56:02 12° ENE 13:58:14 10° E visible
04 Aug - 15:33:05 10° NNW 15:38:56 74° WSW 15:45:02 10° SSE visible
05 Aug - 04:16:39 10° S 04:20:44 46° ESE 04:25:00 10° NE daylight
05 Aug - 14:50:32 10° NNW 14:56:20 61° ENE 15:02:20 10° SSE visible
05 Aug - 16:35:42 10° WNW 16:38:30 14° WSW 16:41:19 10° SW night (unlit)
06 Aug - 03:35:07 10° SSE 03:38:17 20° ESE 03:41:33 10° ENE daylight
06 Aug - 05:17:22 10° WSW 05:20:36 20° WNW 05:23:58 10° NNW daylight
06 Aug - 14:08:25 10° N 14:13:39 33° ENE 14:19:02 10° SE visible
06 Aug - 15:51:12 10° NW 15:56:03 26° WSW 16:01:01 10° SSW visible
07 Aug - 04:33:46 10° SW 04:37:51 43° WNW 04:42:09 10° N daylight
07 Aug - 13:26:55 10° NNE 13:30:51 18° ENE 13:34:53 10° ESE visible
07 Aug - 15:07:51 10° NW 15:13:33 49° WSW 15:19:24 10° S visible
08 Aug - 03:50:59 10° SSW 03:55:15 81° ESE 03:59:45 10° NNE daylight
08 Aug - 14:25:03 10° NNW 14:30:59 89° ENE 14:37:06 10° SSE visible
09 Aug - 03:08:52 10° S 03:12:45 34° ESE 03:16:47 10° NE daylight
09 Aug - 04:53:19 10° W 04:55:21 13° WNW 04:57:26 10° NNW daylight
09 Aug - 13:42:39 10° N 13:48:21 49° ENE 13:54:12 10° SE visible
09 Aug - 15:26:47 10° WNW 15:30:35 17° WSW 15:34:26 10° SW visible
10 Aug - 02:27:49 10° SE 02:30:20 15° ESE 02:32:55 10° ENE daylight
10 Aug - 04:08:51 10° WSW 04:12:30 27° WNW 04:16:21 10° N daylight
10 Aug - 13:00:42 10° N 13:05:37 27° ENE 13:10:39 10° ESE visible
10 Aug - 14:42:53 10° NW 14:48:07 33° WSW 14:53:29 10° S visible
11 Aug - 03:25:35 10° SW 03:29:49 59° WNW 03:34:17 10° NNE daylight
11 Aug - 12:19:34 10° NNE 12:22:46 15° ENE 12:26:01 10° E visible
11 Aug - 13:59:45 10° NNW 14:05:36 62° WSW 14:11:36 10° S visible
12 Aug - 02:43:01 10° S 02:47:14 59° ESE 02:51:41 10° NNE daylight
12 Aug - 13:17:05 10° NNW 13:23:00 73° ENE 13:29:06 10° SSE visible
12 Aug - 15:03:40 10° W 15:05:05 11° WSW 15:06:31 10° WSW visible
13 Aug - 02:01:13 10° SSE 02:04:47 26° ESE 02:08:29 10° NE daylight
13 Aug - 03:44:21 10° W 03:47:13 17° WNW 03:50:12 10° NNW daylight
13 Aug - 12:34:50 10° N 12:40:20 39° ENE 12:45:59 10° SE visible
13 Aug - 14:18:11 10° WNW 14:22:40 22° WSW 14:27:12 10° SSW visible
